Terminal Aerodrome Forecast
Issued by NWS

Home | Current Version | Previous Version | Text Only | Print | Product List | Glossary Off
Versions: 1 2 3 4 5 6 7 8 9 10 11 12 13 14 15 16

000
FTUS42 KMHX 311100
TAFOAJ
TAF
KOAJ 311140Z 3112/0112 19007KT P6SM SCT040
     FM010200 20004KT P6SM SKC
     FM010900 00000KT 5SM BR SCT003
      AMD LTD TO CLD VIS AND WIND=

USA.gov is the U.S. government's official web portal to all federal, state and local government web resources and services.